Ephrata, WA

7:54 AM PST on December 13, 2017 (GMT -0800)
Ephrata Municipal

Weather History for KEPH - March, 2014

Change the Weather History Date:

Saturday, March 22, 2014

  Actual Average Record
Temperature  
Mean Temperature 40 °F 45 °F  
Max Temperature 54 °F 56 °F 69 °F (1960)
Min Temperature 25 °F 34 °F 19 °F (1994)
Degree Days  
Heating Degree Days 25 20  
Month to date heating degree days 488 514  
Since 1 July heating degree days 5070 5087  
Cooling Degree Days 0 0  
Month to date cooling degree days 0 0  
Year to date cooling degree days 0 0  
Moisture  
Dew Point 17 °F    
Average Humidity 43    
Maximum Humidity 63    
Minimum Humidity 22    
Precipitation  
Precipitation 0.00 in 0.02 in 0.22 in (1971)
Month to date precipitation 0.53 0.51  
Year to date precipitation 1.50 2.16  
Sea Level Pressure  
Sea Level Pressure 30.26 in    
Wind  
Wind Speed 8 mph (WSW)    
Max Wind Speed 20 mph    
Max Gust Speed 25 mph    
Visibility 10 miles    
Events      
T = Trace of Precipitation, MM = Missing Value Source: NWS Daily Summary

Daily Weather History Graph

Daily Weather History Graph

Search for Another Location

Airport or City:

Trip Planner

Search our weather history database for the weather conditions in past years. The results will help you decide how hot, cold, wet, or windy it might be!

Date:

Astronomy

Mar. 22, 2014 Rise Set
Actual Time 6:56 AM PDT 7:13 PM PDT
Civil Twilight 6:26 AM PDT 7:44 PM PDT
Nautical Twilight 5:50 AM PDT 8:20 PM PDT
Astronomical Twilight 5:12 AM PDT 8:57 PM PDT
Moon 12:57 AM PDT (3/22) 10:25 AM PDT (3/22)
Length of Visible Light 13h 18m
Length of Day
12h 17m
Waning Gibbous, 64% of the Moon is Illuminated
Mar 22
Waning Gibbous
Mar 23
Last Quarter
Mar 30
New
Apr 7
First Quarter
Apr 15
Full

Hourly Weather History & Observations

Time (PDT) Temp. Windchill Dew Point Humidity Pressure Visibility Wind Dir Wind Speed Gust Speed Precip Events Conditions
12:53 AM 36.0 °F 29.0 °F 10.9 °F 36% 30.29 in 10.0 mi NW 9.2 mph - N/A   Clear
1:53 AM 28.9 °F 22.8 °F 12.9 °F 51% 30.30 in 10.0 mi NNE 5.8 mph - N/A   Clear
2:53 AM 34.0 °F 27.2 °F 15.1 °F 46% 30.30 in 10.0 mi North 8.1 mph - N/A   Clear
3:53 AM 28.0 °F 20.0 °F 15.1 °F 58% 30.31 in 10.0 mi NNE 8.1 mph - N/A   Clear
4:53 AM 32.0 °F 25.6 °F 17.1 °F 54% 30.31 in 10.0 mi NNW 6.9 mph - N/A   Clear
5:53 AM 28.0 °F 22.8 °F 16.0 °F 61% 30.33 in 10.0 mi NNW 4.6 mph - N/A   Clear
6:53 AM 28.0 °F 24.2 °F 16.0 °F 61% 30.34 in 10.0 mi North 3.5 mph - N/A   Clear
7:53 AM 30.9 °F - 19.0 °F 61% 30.35 in 10.0 mi Calm Calm - N/A   Clear
8:53 AM 35.1 °F 30.1 °F 21.0 °F 57% 30.34 in 10.0 mi NNE 5.8 mph - N/A   Clear
9:53 AM 39.0 °F 36.8 °F 19.9 °F 46% 30.34 in 10.0 mi NE 3.5 mph - N/A   Clear
10:53 AM 42.1 °F - 19.0 °F 40% 30.34 in 10.0 mi Calm Calm - N/A   Clear
11:53 AM 46.9 °F - 18.0 °F 32% 30.32 in 10.0 mi South 5.8 mph - N/A   Clear
12:53 PM 51.1 °F - 17.1 °F 26% 30.29 in 10.0 mi SSW 10.4 mph - N/A   Clear
1:53 PM 53.1 °F - 17.1 °F 24% 30.26 in 10.0 mi SSW 17.3 mph - N/A   Clear
2:53 PM 52.0 °F - 16.0 °F 24% 30.22 in 10.0 mi South 15.0 mph - N/A   Clear
3:53 PM 53.1 °F - 16.0 °F 23% 30.21 in 10.0 mi South 12.7 mph - N/A   Clear
4:53 PM 52.0 °F - 16.0 °F 24% 30.19 in 10.0 mi South 13.8 mph - N/A   Clear
5:53 PM 52.0 °F - 16.0 °F 24% 30.17 in 10.0 mi South 13.8 mph - N/A   Clear
6:53 PM 48.0 °F - 16.0 °F 28% 30.16 in 10.0 mi South 9.2 mph - N/A   Clear
7:53 PM 43.0 °F 41.3 °F 18.0 °F 37% 30.16 in 10.0 mi SSW 3.5 mph - N/A   Clear
8:53 PM 44.1 °F 40.8 °F 18.0 °F 35% 30.15 in 10.0 mi SSW 5.8 mph - N/A   Clear
9:53 PM 37.0 °F 30.4 °F 19.0 °F 48% 30.15 in 10.0 mi SSW 9.2 mph - N/A   Scattered Clouds
10:53 PM 43.0 °F 36.8 °F 21.0 °F 42% 30.15 in 10.0 mi NNW 11.5 mph - N/A   Partly Cloudy
11:53 PM 42.1 °F 37.1 °F 24.1 °F 49% 30.15 in 10.0 mi WNW 8.1 mph - N/A   Clear